�N����,����,�~����,�C��,���x,�C��,����,���ϕ���,�ő�u�ԕ���,�ő厞����,���˗�,�I�_���x,�n�����x,�ő啗���N��,DTYPE
"18/02/15","00:10",0.0,3.3,87.0,1010.7,291.6,1.6,2.5,318.8,0.00,1.4,4.8,"00:08:32",1
"18/02/15","00:20",0.0,3.3,86.0,1010.4,332.0,2.2,3.4,331.5,0.00,1.2,4.8,"00:11:52",1
"18/02/15","00:30",0.0,3.1,87.5,1010.7,314.3,2.1,2.9,324.7,0.00,1.3,4.7,"00:29:04",1
"18/02/15","00:40",0.0,2.9,88.3,1010.7,278.8,0.8,2.1,315.9,0.00,1.2,4.7,"00:30:32",1
"18/02/15","00:50",0.0,3.0,88.7,1010.4,290.4,1.3,2.2,313.0,0.00,1.4,4.5,"00:40:48",1
"18/02/15","01:00",0.0,2.9,88.0,1010.7,313.8,2.0,2.9,322.5,0.00,1.2,4.4,"00:54:16",1
"18/02/15","01:10",0.0,3.0,88.9,1010.7,301.6,1.7,2.5,300.9,0.00,1.4,4.6,"01:05:28",1
"18/02/15","01:20",0.0,3.3,87.6,1010.7,307.7,2.1,3.9,321.9,0.00,1.5,4.5,"01:14:00",1
"18/02/15","01:30",0.0,3.4,87.3,1010.7,302.9,1.6,2.1,313.9,0.00,1.5,4.7,"01:26:00",1
"18/02/15","01:40",0.0,3.1,86.0,1010.7,299.0,1.3,2.4,320.8,0.00,1.0,4.5,"01:35:52",1
"18/02/15","01:50",0.0,2.9,87.9,1010.9,300.0,1.6,1.9,302.5,0.00,1.1,4.3,"01:43:52",1
"18/02/15","02:00",0.0,3.0,87.9,1010.9,303.4,1.2,2.6,322.8,0.00,1.2,4.6,"01:52:24",1
"18/02/15","02:10",0.0,2.7,88.3,1011.2,273.4,0.7,1.3,279.0,0.00,1.0,4.5,"02:04:08",1
"18/02/15","02:20",0.0,2.6,89.5,1010.9,298.1,1.6,2.8,320.2,0.00,1.1,4.3,"02:16:00",1
"18/02/15","02:30",0.0,2.6,90.3,1010.9,323.9,2.2,3.2,323.0,0.00,1.2,4.3,"02:23:52",1
"18/02/15","02:40",0.0,2.3,91.1,1010.4,275.9,1.1,2.5,326.9,0.00,1.0,4.2,"02:30:08",1
"18/02/15","02:50",0.0,2.3,92.1,1010.7,302.4,1.7,2.4,320.3,0.00,1.2,4.3,"02:46:08",1
"18/02/15","03:00",0.0,2.3,91.9,1010.2,314.8,2.0,3.1,320.9,0.00,1.2,4.6,"02:54:00",1
"18/02/15","03:10",0.0,2.1,91.9,1010.4,290.5,1.6,1.9,319.2,0.00,1.0,4.2,"03:04:24",1
"18/02/15","03:20",0.0,2.3,92.8,1010.2,309.6,1.7,3.1,315.0,0.00,1.3,4.2,"03:17:12",1
"18/02/15","03:30",0.0,2.2,92.3,1010.0,291.6,1.6,2.5,310.6,0.00,1.1,4.3,"03:21:52",1
"18/02/15","03:40",0.0,2.1,93.0,1010.2,281.8,1.0,1.6,284.2,0.00,1.1,4.2,"03:38:16",1
"18/02/15","03:50",0.0,2.2,92.7,1009.7,308.6,1.5,2.8,321.7,0.00,1.2,4.2,"03:47:12",1
"18/02/15","04:00",0.0,1.9,93.0,1009.5,281.8,1.7,3.1,327.5,0.00,0.9,4.1,"03:59:36",1
"18/02/15","04:10",0.0,2.0,94.1,1009.5,294.1,1.6,2.9,306.3,0.00,1.2,4.1,"04:02:40",1
"18/02/15","04:20",0.0,2.2,94.0,1009.5,306.3,1.0,3.2,323.5,0.00,1.4,4.1,"04:18:40",1
"18/02/15","04:30",0.0,2.2,94.1,1009.0,313.1,1.5,3.6,334.2,0.00,1.4,4.2,"04:21:44",1
"18/02/15","04:40",0.0,2.0,93.9,1008.8,291.1,1.5,2.2,319.8,0.00,1.2,4.0,"04:34:16",1
"18/02/15","04:50",0.0,2.0,94.5,1008.8,310.7,2.2,3.2,324.1,0.00,1.3,4.2,"04:47:28",1
"18/02/15","05:00",0.0,1.8,94.7,1009.0,279.6,1.5,2.0,272.3,0.00,1.1,4.1,"04:59:20",1
"18/02/15","05:10",0.0,2.1,95.7,1009.3,275.5,1.5,1.8,279.8,0.00,1.5,4.0,"05:00:08",1
"18/02/15","05:20",0.0,2.4,94.7,1009.3,307.5,2.0,2.7,323.3,0.00,1.7,4.2,"05:10:02",1
"18/02/15","05:30",0.0,2.3,93.6,1009.3,301.8,1.2,2.5,320.1,0.00,1.4,4.0,"05:22:40",1
"18/02/15","05:40",0.0,2.1,94.6,1009.3,287.3,1.8,3.3,322.2,0.00,1.4,4.0,"05:30:02",1
"18/02/15","05:50",0.0,2.2,94.2,1009.5,311.5,1.7,2.8,314.2,0.00,1.4,3.9,"05:40:08",1
"18/02/15","06:00",0.0,2.0,94.3,1009.3,291.7,1.8,2.8,319.7,0.00,1.2,3.9,"05:55:12",1
"18/02/15","06:10",0.0,1.9,94.8,1009.3,302.6,2.2,3.3,320.4,0.00,1.2,3.9,"06:08:00",1
"18/02/15","06:20",0.0,2.0,95.2,1009.0,291.0,1.8,2.2,300.6,0.00,1.4,3.9,"06:14:32",1
"18/02/15","06:30",0.0,2.2,94.9,1009.0,329.5,1.7,3.2,321.5,0.00,1.5,4.0,"06:28:56",1
"18/02/15","06:40",0.0,2.1,95.4,1009.0,288.6,1.7,3.1,299.9,0.00,1.5,3.9,"06:32:48",1
"18/02/15","06:50",0.0,2.2,96.0,1009.0,293.9,1.2,2.0,318.6,0.00,1.7,4.0,"06:45:20",1
"18/02/15","07:00",0.0,2.2,95.3,1009.3,308.5,2.0,3.1,324.6,0.00,1.6,4.0,"06:51:52",1
"18/02/15","07:10",0.0,2.3,95.9,1009.3,295.2,1.3,2.2,307.5,0.00,1.8,3.7,"07:03:52",1
"18/02/15","07:20",0.0,2.3,96.2,1009.3,277.7,1.1,1.7,272.0,0.00,1.8,4.0,"07:10:08",1
"18/02/15","07:30",0.0,2.7,96.2,1009.7,301.5,1.7,2.8,325.7,0.00,2.2,4.0,"07:28:48",1
"18/02/15","07:40",0.0,3.2,96.3,1009.7,307.6,1.3,2.5,353.4,0.01,2.7,3.8,"07:39:12",1
"18/02/15","07:50",0.0,3.5,96.0,1010.0,320.3,1.7,2.6,337.2,0.01,3.0,3.9,"07:40:16",1
"18/02/15","08:00",0.0,3.7,96.0,1010.0,288.1,1.2,1.9,311.8,0.02,3.2,4.0,"07:55:28",1
"18/02/15","08:10",0.0,4.0,95.8,1009.7,280.4,0.5,1.1,304.7,0.03,3.4,4.0,"08:00:24",1
"18/02/15","08:20",0.0,4.3,95.2,1010.0,289.6,0.7,1.3,305.2,0.04,3.6,4.0,"08:17:44",1
"18/02/15","08:30",0.0,4.7,94.7,1010.4,296.0,1.1,2.0,310.9,0.03,4.0,4.2,"08:27:36",1
"18/02/15","08:40",0.0,5.1,93.8,1010.2,320.2,2.3,3.7,328.0,0.04,4.2,4.0,"08:31:36",1
"18/02/15","08:50",0.0,5.4,92.9,1010.7,271.4,1.7,3.3,312.3,0.05,4.4,4.4,"08:40:40",1
"18/02/15","09:00",0.0,6.0,91.7,1010.9,251.3,1.0,1.3,258.9,0.08,4.8,4.3,"08:50:08",1
"18/02/15","09:10",0.0,6.6,87.4,1011.2,220.5,0.7,1.2,107.9,0.10,4.7,4.4,"09:08:00",1
"18/02/15","09:20",0.0,6.7,84.8,1011.2,136.4,0.6,1.4,112.5,0.11,4.4,4.6,"09:17:04",1
"18/02/15","09:30",0.0,7.3,82.8,1011.9,238.5,0.5,1.6,308.8,0.08,4.6,4.5,"09:29:52",1
"18/02/15","09:40",0.0,7.6,81.5,1011.6,282.3,1.3,1.7,308.4,0.06,4.7,4.8,"09:30:16",1
"18/02/15","09:50",0.0,7.6,79.7,1011.4,310.6,1.6,2.9,320.1,0.05,4.4,4.8,"09:46:00",1
"18/02/15","10:00",0.0,8.0,79.3,1011.6,322.5,1.5,2.4,349.9,0.07,4.7,5.0,"09:50:02",1
"18/02/15","10:10",0.0,8.2,78.7,1012.1,332.1,1.5,2.4,347.1,0.07,4.8,5.0,"10:00:16",1
"18/02/15","10:20",0.0,8.8,76.2,1012.3,316.7,2.7,4.8,328.4,0.09,4.9,5.2,"10:13:36",1
"18/02/15","10:30",0.0,9.0,73.5,1011.9,305.5,2.6,4.5,332.6,0.08,4.6,5.4,"10:23:04",1
"18/02/15","10:40",0.0,9.8,73.6,1011.6,290.5,2.2,3.4,305.1,0.27,5.4,5.2,"10:37:28",1
"18/02/15","10:50",0.0,10.5,72.2,1011.9,288.0,1.7,3.1,324.5,0.31,5.8,5.5,"10:40:24",1
"18/02/15","11:00",0.0,10.8,68.6,1011.4,281.2,2.0,3.7,296.5,0.41,5.3,5.7,"10:53:04",1
"18/02/15","11:10",0.0,11.0,70.1,1011.2,301.6,2.2,3.7,333.4,0.41,5.8,6.0,"11:07:28",1
"18/02/15","11:20",0.0,11.5,68.4,1011.2,290.7,1.6,3.2,292.7,0.40,5.9,6.3,"11:19:36",1
"18/02/15","11:30",0.0,10.9,69.6,1010.9,305.9,2.3,4.9,321.7,0.39,5.6,6.5,"11:20:08",1
"18/02/15","11:40",0.0,11.6,66.9,1010.2,335.7,1.0,2.1,331.5,0.41,5.7,6.8,"11:32:32",1
"18/02/15","11:50",0.0,11.6,66.6,1009.7,222.4,1.2,2.5,169.1,0.35,5.6,6.9,"11:45:20",1
"18/02/15","12:00",0.0,11.6,67.9,1010.2,203.0,1.8,3.3,134.5,0.37,5.9,7.1,"11:56:56",1
"18/02/15","12:10",0.0,12.2,66.2,1010.0,197.8,1.7,2.8,190.6,0.47,6.1,7.5,"12:05:04",1
"18/02/15","12:20",0.0,12.9,65.3,1009.7,230.3,2.1,4.5,340.2,0.46,6.6,7.5,"12:17:28",1
"18/02/15","12:30",0.0,12.5,64.3,1009.7,307.9,3.2,6.4,342.1,0.47,6.0,7.7,"12:22:56",1
"18/02/15","12:40",0.0,12.4,64.7,1009.5,269.7,2.2,3.6,295.0,0.47,6.0,8.1,"12:32:40",1
"18/02/15","12:50",0.0,12.1,65.6,1009.3,305.0,2.6,4.4,338.6,0.30,5.9,8.0,"12:44:40",1
"18/02/15","13:00",0.0,11.9,66.3,1009.0,296.0,2.7,7.9,334.0,0.16,5.9,8.2,"12:51:28",1
"18/02/15","13:10",0.0,12.0,66.3,1009.3,302.3,2.6,3.9,260.2,0.22,6.0,8.3,"13:01:20",1
"18/02/15","13:20",0.0,12.4,66.4,1009.3,331.5,2.5,4.3,347.4,0.31,6.4,8.4,"13:11:28",1
"18/02/15","13:30",0.0,11.3,67.8,1009.3,311.8,3.4,5.8,328.4,0.24,5.6,8.5,"13:25:12",1
"18/02/15","13:40",0.0,11.0,68.2,1009.3,290.2,3.0,5.7,325.1,0.23,5.4,8.6,"13:36:08",1
"18/02/15","13:50",0.0,10.9,69.6,1009.5,293.2,2.7,6.0,341.6,0.13,5.6,8.3,"13:47:20",1
"18/02/15","14:00",0.0,10.5,70.3,1009.3,285.5,2.6,6.5,330.0,0.13,5.4,8.6,"13:59:04",1
"18/02/15","14:10",0.0,10.4,71.2,1009.3,300.8,3.0,5.1,323.0,0.13,5.5,8.5,"14:06:40",1
"18/02/15","14:20",0.0,10.2,70.8,1009.5,303.5,3.2,5.8,318.1,0.14,5.2,8.3,"14:15:52",1
"18/02/15","14:30",0.0,10.1,71.0,1009.0,321.9,3.6,5.7,324.8,0.14,5.1,8.5,"14:27:36",1
"18/02/15","14:40",0.0,10.3,70.0,1009.3,316.9,3.2,5.0,305.6,0.12,5.1,8.4,"14:32:24",1
"18/02/15","14:50",0.0,9.8,70.5,1009.3,328.6,4.2,8.5,324.1,0.09,4.7,8.4,"14:48:24",1
"18/02/15","15:00",0.0,9.1,72.9,1009.3,329.5,4.2,5.7,343.8,0.07,4.5,8.4,"14:56:00",1
"18/02/15","15:10",0.0,8.2,75.6,1009.3,336.1,5.4,10.2,335.0,0.05,4.2,8.5,"15:09:04",1
"18/02/15","15:20",0.0,7.8,77.3,1009.0,337.0,5.0,8.3,326.0,0.05,4.1,8.2,"15:13:12",1
"18/02/15","15:30",0.0,7.9,77.4,1009.5,333.9,4.6,8.8,339.0,0.06,4.2,8.2,"15:29:28",1
"18/02/15","15:40",0.0,7.6,77.4,1009.5,332.5,5.2,8.5,342.2,0.05,3.9,8.1,"15:33:04",1
"18/02/15","15:50",0.0,8.2,75.4,1009.7,338.0,4.6,7.4,347.8,0.09,4.2,8.0,"15:48:00",1
"18/02/15","16:00",0.0,7.7,76.2,1009.7,335.7,4.6,7.9,342.4,0.04,3.8,7.9,"15:57:04",1
"18/02/15","16:10",0.0,7.7,76.8,1010.2,339.4,4.1,7.2,343.4,0.03,3.9,7.9,"16:02:00",1
"18/02/15","16:20",0.0,7.6,77.0,1009.7,335.7,4.0,7.2,334.0,0.02,3.9,7.7,"16:10:48",1
"18/02/15","16:30",0.0,7.4,77.3,1010.2,336.3,4.2,7.5,338.2,0.02,3.7,7.8,"16:25:20",1
"18/02/15","16:40",0.0,7.3,78.1,1010.0,329.6,5.0,8.2,323.4,0.03,3.8,7.5,"16:34:16",1
"18/02/15","16:50",0.0,7.2,78.6,1010.0,330.6,4.9,8.8,342.0,0.03,3.8,7.6,"16:47:20",1
"18/02/15","17:00",0.0,7.1,79.0,1010.0,333.9,4.5,7.0,335.3,0.02,3.7,7.5,"16:51:20",1
"18/02/15","17:10",0.0,6.8,79.4,1010.0,338.2,4.4,6.7,338.5,0.00,3.5,7.3,"17:05:04",1
"18/02/15","17:20",0.0,6.8,79.5,1010.4,337.6,4.1,8.3,336.8,0.00,3.5,7.3,"17:12:00",1
"18/02/15","17:30",0.0,6.6,79.4,1010.9,328.5,5.1,8.6,337.3,0.00,3.3,7.3,"17:27:52",1
"18/02/15","17:40",0.0,6.6,79.4,1010.9,330.1,4.2,6.8,342.0,0.00,3.3,7.2,"17:39:52",1
"18/02/15","17:50",0.0,6.4,79.4,1010.4,329.2,4.2,6.0,329.4,0.00,3.1,7.2,"17:40:24",1
"18/02/15","18:00",0.0,6.2,79.6,1010.7,327.4,3.5,6.0,305.0,0.00,3.0,7.0,"17:51:04",1
"18/02/15","18:10",0.0,6.0,80.0,1010.7,333.4,4.0,7.1,340.5,0.00,2.9,7.1,"18:08:24",1
"18/02/15","18:20",0.0,5.8,80.2,1011.2,331.2,3.5,5.7,337.7,0.00,2.7,7.0,"18:16:48",1
"18/02/15","18:30",0.0,5.6,80.2,1010.9,328.0,3.6,6.6,321.7,0.00,2.5,7.0,"18:29:36",1
"18/02/15","18:40",0.0,5.7,78.6,1010.7,332.6,4.6,8.1,322.3,0.00,2.3,6.7,"18:39:12",1
"18/02/15","18:50",0.0,5.7,77.1,1010.9,323.4,4.6,8.3,332.7,0.00,2.0,6.7,"18:42:08",1
"18/02/15","19:00",0.0,5.4,77.3,1010.9,327.8,3.6,5.9,319.2,0.00,1.8,6.6,"18:50:08",1
"18/02/15","19:10",0.0,5.3,77.2,1010.9,330.7,3.9,6.0,335.1,0.00,1.7,6.5,"19:06:08",1
"18/02/15","19:20",0.0,5.2,77.2,1011.2,331.8,3.9,7.2,323.7,0.00,1.6,6.6,"19:18:18",1
"18/02/15","19:30",0.0,5.0,77.5,1010.9,327.1,3.5,5.0,331.3,0.00,1.4,6.4,"19:29:20",1
"18/02/15","19:40",0.0,5.1,76.4,1010.9,326.7,4.0,6.6,309.4,0.00,1.3,6.6,"19:31:12",1
"18/02/15","19:50",0.0,4.7,76.9,1010.9,322.6,3.0,4.7,314.9,0.00,1.0,6.3,"19:46:16",1
"18/02/15","20:00",0.0,4.7,77.4,1010.9,326.3,3.1,5.2,334.4,0.00,1.1,6.3,"19:59:28",1
"18/02/15","20:10",0.0,4.4,76.9,1011.4,328.3,2.7,4.9,309.0,0.00,0.7,6.4,"20:00:08",1
"18/02/15","20:20",0.0,4.0,80.3,1011.4,327.2,2.5,3.6,329.8,0.00,1.0,6.1,"20:16:32",1
"18/02/15","20:30",0.0,4.0,80.8,1011.4,330.1,3.0,5.4,333.1,0.00,1.0,6.2,"20:27:04",1
"18/02/15","20:40",0.0,4.0,79.9,1011.4,328.4,3.1,5.1,334.9,0.00,0.9,6.0,"20:37:20",1
"18/02/15","20:50",0.0,4.1,80.4,1011.4,325.9,3.6,5.1,343.6,0.00,1.1,6.1,"20:46:32",1
"18/02/15","21:00",0.0,4.5,78.9,1011.4,320.3,4.7,6.4,329.4,0.00,1.2,6.1,"20:57:04",1
"18/02/15","21:10",0.0,4.5,78.1,1011.6,319.3,5.0,9.3,327.2,0.00,1.1,5.8,"21:06:32",1
"18/02/15","21:20",0.0,4.4,78.3,1011.9,315.3,4.4,6.6,326.6,0.00,1.0,5.8,"21:17:28",1
"18/02/15","21:30",0.0,4.4,77.9,1011.9,327.0,3.9,6.3,333.8,0.00,0.9,5.7,"21:29:04",1
"18/02/15","21:40",0.0,4.3,78.4,1012.3,326.2,2.8,4.8,339.5,0.00,0.9,5.7,"21:32:00",1
"18/02/15","21:50",0.0,4.1,77.7,1011.6,330.8,1.1,3.3,328.7,0.00,0.6,5.7,"21:40:08",1
"18/02/15","22:00",0.0,3.4,78.1,1011.6,323.2,1.7,2.2,333.2,0.00,0.0,5.4,"21:52:08",1
"18/02/15","22:10",0.0,2.8,81.8,1012.1,313.7,2.0,3.3,323.7,0.00,0.0,5.4,"22:06:00",1
"18/02/15","22:20",0.0,2.3,83.5,1011.9,297.3,1.3,2.6,316.2,0.00,-0.2,5.3,"22:10:08",1
"18/02/15","22:30",0.0,2.2,86.0,1011.6,319.0,1.8,2.8,350.1,0.00,0.1,5.3,"22:28:00",1
"18/02/15","22:40",0.0,2.3,86.4,1011.6,322.2,2.1,3.2,319.1,0.00,0.3,5.3,"22:39:44",1
"18/02/15","22:50",0.0,2.2,86.5,1011.6,323.3,1.1,2.2,314.3,0.00,0.2,5.3,"22:44:24",1
"18/02/15","23:00",0.0,2.1,86.7,1011.6,312.9,1.1,2.1,329.6,0.00,0.2,5.0,"22:52:48",1
"18/02/15","23:10",0.0,1.8,87.7,1011.6,298.9,1.0,1.8,278.7,0.00,0.0,4.9,"23:03:20",1
"18/02/15","23:20",0.0,1.6,87.8,1011.6,315.1,0.7,2.4,339.1,0.00,-0.2,5.0,"23:13:44",1
"18/02/15","23:30",0.0,1.9,89.6,1011.4,310.6,2.2,4.5,329.7,0.00,0.4,4.9,"23:28:16",1
"18/02/15","23:40",0.0,2.2,88.6,1011.4,298.4,2.7,3.9,315.0,0.00,0.6,4.6,"23:37:28",1
"18/02/15","23:50",0.0,2.1,87.3,1011.2,278.9,1.5,3.7,321.2,0.00,0.3,4.6,"23:42:24",1
"18/02/15","24:00",0.0,1.8,87.4,1011.2,287.9,1.0,2.1,316.6,0.00,0.0,4.6,"23:57:36",1
